Location: Bastogne Gables
(35.1554°N, 78.9900°W)
Time: 21:41:14
(UTC+00:00)

CZ-4B R/B - Pass Details

Date: 29 October 2020
Orbit: 389 x 462 km, 97.6° (Epoch: 26 November)

Event Time Altitude Azimuth Distance (km) Brightness Sun altitude
Rises 23:23:24 0° 357° (N) 2,358 5.0 -12.7°
Reaches altitude 10° 23:25:39 10° 342° (NNW) 1,477 4.1 -13.2°
Maximum altitude 23:28:12 23° 288° (WNW) 912 3.8 -13.7°
Drops below altitude 10° 23:30:42 10° 233° (SW) 1,441 4.9 -14.2°
Sets 23:32:53 0° 218° (SW) 2,284 5.7 -14.6°
